Newport, RI

12:41 AM EDT on October 20, 2017 (GMT -0400)
Newport State

Weather History for KUUU - February, 2013

Change the Weather History Date:

Saturday, February 2, 2013

  Actual Average Record
Temperature  
Mean Temperature 24 °F -  
Max Temperature 28 °F 39 °F 52 °F (1976)
Min Temperature 19 °F 24 °F -2 °F (1961)
Degree Days  
Heating Degree Days 42    
Moisture  
Dew Point 11 °F    
Average Humidity 54    
Maximum Humidity 63    
Minimum Humidity 43    
Precipitation  
Precipitation 0.00 in - - ()
Sea Level Pressure  
Sea Level Pressure 30.15 in    
Wind  
Wind Speed 9 mph (WSW)    
Max Wind Speed 13 mph    
Max Gust Speed 23 mph    
Visibility 10 miles    
Events      
Averages and records for this station are not official NWS values.
T = Trace of Precipitation, MM = Missing Value Source: NWS Daily Summary

Daily Weather History Graph

Daily Weather History Graph

Search for Another Location

Airport or City:

Trip Planner

Search our weather history database for the weather conditions in past years. The results will help you decide how hot, cold, wet, or windy it might be!

Date:

Astronomy

Feb. 02, 2013 Rise Set
Actual Time 6:55 AM EST 5:02 PM EST
Civil Twilight 6:26 AM EST 5:31 PM EST
Nautical Twilight 5:53 AM EST 6:05 PM EST
Astronomical Twilight 5:20 AM EST 6:37 PM EST
Moon No Moon Rise 9:58 AM EST (2/2)
Length of Visible Light 11h 05m
Length of Day
10h 07m
Waning Gibbous, 60% of the Moon is Illuminated
Feb 2
Waning Gibbous
Feb 3
Last Quarter
Feb 10
New
Feb 17
First Quarter
Feb 25
Full

Hourly Weather History & Observations

Time (EST) Temp. Windchill Dew Point Humidity Pressure Visibility Wind Dir Wind Speed Gust Speed Precip Events Conditions
12:53 AM 21.9 °F 11.7 °F 6.1 °F 51% 30.13 in 10.0 mi West 9.2 mph 16.1 mph N/A   Clear
1:53 AM 21.9 °F 11.7 °F 5.0 °F 48% 30.16 in 10.0 mi West 9.2 mph 19.6 mph N/A   Clear
2:53 AM 21.0 °F 9.3 °F 5.0 °F 50% 30.17 in 10.0 mi WNW 11.5 mph 18.4 mph N/A   Clear
4:53 AM 21.0 °F 9.9 °F 6.1 °F 53% 30.20 in 10.0 mi West 10.4 mph 18.4 mph N/A   Clear
5:53 AM 19.9 °F 7.9 °F 7.0 °F 57% 30.22 in 10.0 mi West 11.5 mph 18.4 mph N/A   Clear
7:53 AM 21.0 °F 14.6 °F 7.0 °F 55% 30.26 in 10.0 mi West 4.6 mph - N/A   Clear
8:53 AM 21.9 °F 11.7 °F 7.0 °F 53% 30.27 in 10.0 mi West 9.2 mph - N/A   Clear
9:53 AM 24.1 °F 16.0 °F 7.0 °F 48% 30.27 in 10.0 mi Variable 6.9 mph - N/A   Clear
10:53 AM 25.0 °F 19.3 °F 7.0 °F 46% 30.26 in 10.0 mi West 4.6 mph - N/A   Clear
11:53 AM 27.0 °F 19.5 °F 7.0 °F 43% 30.21 in 10.0 mi SSW 6.9 mph - N/A   Clear
12:53 PM 27.0 °F 16.1 °F 12.9 °F 56% 30.18 in 10.0 mi SW 12.7 mph 18.4 mph N/A   Scattered Clouds
1:53 PM 28.0 °F 19.3 °F 10.9 °F 49% 30.15 in 10.0 mi SSW 9.2 mph 18.4 mph N/A   Partly Cloudy
2:53 PM 28.0 °F 18.1 °F 12.0 °F 51% 30.13 in 10.0 mi SW 11.5 mph 20.7 mph N/A   Mostly Cloudy
3:53 PM 28.0 °F 22.8 °F 12.9 °F 53% 30.12 in 10.0 mi SW 4.6 mph 18.4 mph N/A   Mostly Cloudy
4:53 PM 28.0 °F 20.0 °F 12.9 °F 53% 30.10 in 10.0 mi SW 8.1 mph 21.9 mph N/A   Mostly Cloudy
5:53 PM 28.9 °F 20.4 °F 15.1 °F 56% 30.09 in 10.0 mi SW 9.2 mph 23.0 mph N/A   Overcast
6:53 PM 28.9 °F 23.9 °F 16.0 °F 58% 30.08 in 10.0 mi SW 4.6 mph - N/A   Scattered Clouds
7:53 PM 28.9 °F 22.8 °F 17.1 °F 61% 30.07 in 10.0 mi SW 5.8 mph - N/A   Overcast
8:53 PM 28.9 °F 25.2 °F 17.1 °F 61% 30.06 in 10.0 mi Variable 3.5 mph - N/A   Overcast
9:53 PM 28.9 °F 20.4 °F 17.1 °F 61% 30.06 in 10.0 mi West 9.2 mph - N/A   Overcast
10:53 PM 28.0 °F 19.3 °F 17.1 °F 63% 30.06 in 9.0 mi West 9.2 mph 16.1 mph N/A   Overcast